This demonstration page uses our WeatherBlox Daily Observations layout. Learn more.

Left ArrowRight Arrow

Hourly Observations for July 22, 2018

Temp ( °F °C ) Dew Point ( °F °C ) Humidity (%) Winds ( mph kmh ) Pressure ( in mb ) Visibility ( mi km ) Precip ( " mm )
12:53 am 00:53 Clear 83 28.3 47 8.3 28 28 SSE 8 13 29.88 1012 10 16 0.00 0.00
1:53 am 01:53 Clear 79 26.1 47 8.3 32 32 SSE 7 11 29.88 1012 10 16 0.00 0.00
2:53 am 02:53 Clear 76 24.4 47 8.3 36 36 E 3 6 29.88 1012 10 16 0.00 0.00
3:53 am 03:53 Clear 73 22.8 48 8.9 41 41 E 6 9 29.87 1012 10 16 0.00 0.00
4:53 am 04:53 Clear 72 22.2 48 8.9 43 43 E 8 13 29.86 1011 10 16 0.00 0.00
5:53 am 05:53 Clear 72 22.2 50 10 46 46 ESE 8 13 29.88 1012 10 16 0.00 0.00
6:53 am 06:53 Clear 75 23.9 52 11.1 45 45 SE 10 17 29.88 1012 10 16 0.00 0.00
7:53 am 07:53 Sunny 74 23.3 53 11.7 48 48 ESE 8 13 29.88 1012 10 16 0.00 0.00
8:53 am 08:53 Sunny 80 26.7 56 13.3 44 44 SE 9 15 29.90 1012 10 16 0.00 0.00
9:53 am 09:53 Sunny 86 30 57 13.9 37 37 SSE 12 19 29.89 1012 10 16 0.00 0.00
10:53 am 10:53 Sunny 91 32.8 57 13.9 32 32 SSE 9 15 29.88 1012 10 16 0.00 0.00
11:53 am 11:53 Sunny 94 34.4 55 12.8 27 27 S 13 20 29.87 1012 10 16 0.00 0.00
12:53 pm 12:53 Sunny 97 36.1 53 11.7 23 23 SSE 8 13 29.86 1011 10 16 0.00 0.00
1:53 pm 13:53 Sunny 99 37.2 49 9.4 18 18 VRB 5 7 29.84 1011 10 16 0.00 0.00
2:53 pm 14:53 Sunny 101 38.3 50 10 18 18 E 8 13 29.81 1010 10 16 0.00 0.00
3:53 pm 15:53 Sunny 103 39.4 45 7.2 14 14 E 10 17 29.80 1009 10 16 0.00 0.00
4:53 pm 16:53 Sunny 103 39.4 46 7.8 15 15 undefined N/A 29.78 1008 10 16 0.00 0.00
5:53 pm 17:53 Sunny 105 40.6 46 7.8 14 14 ESE 9 15 29.76 1008 10 16 0.00 0.00
6:53 pm 18:53 Sunny 104 40 45 7.2 13 13 SE 9 15 29.75 1008 10 16 0.00 0.00
7:53 pm 19:53 Sunny 102 38.9 43 6.1 13 13 SSE 8 13 29.76 1008 10 16 0.00 0.00
8:53 pm 20:53 Sunny 96 35.6 46 7.8 18 18 SE 8 13 29.76 1008 10 16 0.00 0.00
9:53 pm 21:53 Clear 90 32.2 47 8.3 23 23 SE 7 11 29.78 1008 10 16 0.00 0.00
10:53 pm 22:53 Clear 88 31.1 47 8.3 24 24 ESE 10 17 29.79 1009 10 16 0.00 0.00
11:53 pm 23:53 Clear 86 30 48 8.9 27 27 SE 10 17 29.79 1009 10 16 0.00 0.00

Powered by AerisWeather